Regional Weather Roundup
Issued by NWS

Home | Current Version | Previous Version | Graphics & Text | Print | Product List | Glossary On
Versions: 1 2 3 4 5 6 7 8 9 10 11 12 13 14 15 16 17 18 19 20 21 22 23 24 25 26 27 28 29 30 31 32 33 34 35 36 37 38 39 40 41 42 43 44 45 46 47 48 49 50
000
ASUS43 KMPX 300610
RWRMN
WEATHER ROUNDUP FOR MINNESOTA
NATIONAL WEATHER SERVICE TWIN CITIES/CHANHASSEN MN
100 AM CDT THU JUL 30 2015


NOTE: "FAIR" INDICATES FEW OR NO CLOUDS BELOW 12,000 FEET WITH NO
SIGNIFICANT WEATHER AND/OR OBSTRUCTIONS TO VISIBILITY. N/A MEANS
CURRENT SKY AND/OR WEATHER CONDITIONS ARE NOT AVAILABLE.

MNZ060>063-068>070-300700-
   Twin Cities Metro

CITY           SKY/WX    TMP DP  RH WIND       PRES   REMARKS
TWIN CITIES    CLEAR     69  56  62 SW6       30.01R
6HR MIN TEMP:  69; 6HR MAX TEMP:  81;

ST PAUL        CLEAR     69  56  62 W6        30.00R
CRYSTAL        CLEAR     71  56  58 W10       29.99R
BLAINE         CLEAR     72  57  60 W9        30.00R
LAKEVILLE      CLEAR     64  55  72 W5        30.03R
EDEN PRAIRIE   CLEAR     64  57  78 SW6       30.01R
6HR MIN TEMP:  64; 6HR MAX TEMP:  80;

SOUTH ST PAUL  CLEAR     69  55  62 W7        30.00R
LAKE ELMO      FAIR      70  55  60 W8        30.01R
$$
MNZ001>005-007-008-013>017-022>024-027-028-300700-
   Northwest Minnesota

CITY           SKY/WX    TMP DP  RH WIND       PRES   REMARKS
BEMIDJI        CLEAR     63  56  78 W6        29.92S
HALLOCK        CLEAR     61  57  88 W5        29.89S
ROSEAU         CLEAR     63  55  77 W7        29.88R
WARROAD        CLEAR     61  55  82 W7        29.88R
THIEF RVR FALL CLEAR     63  57  82 W9        29.92S
CROOKSTON      CLEAR     63  57  82 W8        29.93S
FOSSTON        CLEAR     57  55  94 CALM      29.95R
DETROIT LAKES  CLEAR     68  55  64 W7        29.99R
MOORHEAD       CLEAR     63  57  82 W7        29.98R
PARK RAPIDS    CLEAR     63  55  75 W9        29.96R
MAHNOMEN       FAIR      63  57  82 W9        29.96R
$$
MNZ006-009>011-018-025>026-300700-
   North Central Minnesota

CITY           SKY/WX    TMP DP  RH WIND       PRES   REMARKS
BAUDETTE       CLEAR     66  54  65 W9        29.85R
FLAG ISLAND    PTCLDY    66  57  72 NW16G22   29.83R
INTL FALLS     CLEAR     62  53  72 W8        29.82R
6HR MIN TEMP:  62; 6HR MAX TEMP:  71; 6HR PCP:  0.01;

WASKISH        CLEAR     68  57  68 W15G22    29.88R
BIG FORK       CLEAR     59  54  82 SW6       29.89R
LONGVILLE      CLEAR     64  55  72 W5        29.93R
GRAND RAPIDS   CLEAR     66  54  63 W10       29.91R
CRANE LAKE     PTCLDY    64  54  68 W6        29.81R
ORR            PTCLDY    63  48  59 W6        29.82R
COOK           PTCLDY    63  52  67 W8        29.85R
WALKER         FAIR      64  56  74 W6        29.93R
$$
MNZ012-019>021-037-300700-
   Northeast Minnesota

CITY           SKY/WX    TMP DP  RH WIND       PRES   REMARKS
DULUTH         PTCLDY    62  54  74 W12       29.88R
6HR MIN TEMP:  61; 6HR MAX TEMP:  76;

ELY            PTCLDY    64  52  63 W13G18    29.81R
HIBBING        PTCLDY    63  53  70 W6        29.87R
EVELETH        PTCLDY    59  50  72 SW6       29.88R
DULUTH HARBOR  CLEAR     68  57  68 SW14      29.87S
TWO HARBORS    CLEAR     68  57  68 W9        29.83S
SILVER BAY     CLEAR     63  54  72 SW3       29.80S
GRAND MARAIS     N/A     55  48  77 SW8       29.72R
G MARAIS ARPRT MOCLDY    63  52  67 W12G21    29.76S
$$
MNZ029>031-032-039>041-046>048-054>057-064-300700-
   West Central Minnesota

CITY           SKY/WX    TMP DP  RH WIND       PRES   REMARKS
FERGUS FALLS   CLEAR     61  55  82 W6        30.00R
WHEATON        CLEAR     63  55  77 SW8       30.04R
MORRIS         CLEAR     63  55  77 W6        30.02R
ALEXANDRIA     CLEAR     65  55  70 W8        30.03R
ELBOW LAKE     FAIR      62  55  78 W8        30.01R
WADENA         CLEAR     64  55  72 SW7       29.98R
GLENWOOD       CLEAR     63  57  82 SW9       30.03S
APPLETON       CLEAR     61  55  82 W7        30.03S
BENSON         CLEAR     61  54  77 W6        30.03S
ORTONVILLE     CLEAR     64  52  63 W6        30.04S
MADISON        CLEAR     61  54  77 W7        30.05S
WILLMAR        FAIR      61  55  82 W3        30.05S
$$
MNZ033>034-036-042>043-049>051-058-059-300700-
   Central Minnesota

CITY           SKY/WX    TMP DP  RH WIND       PRES   REMARKS
ST CLOUD       CLEAR     65  55  70 W9        29.99R
6HR MIN TEMP:  65; 6HR MAX TEMP:  80;

SAUK CENTRE    FAIR      63  55  77 W7        30.02R
PAYNESVILLE    CLEAR     59  55  85 SW6       30.03S
AITKIN         CLEAR     66  55  68 SW6       29.93R
PINE RIVER     CLEAR     64  55  72 SW3       29.98S
BRAINERD       CLEAR     67  56  67 W9        29.96R
STAPLES        CLEAR     64  55  72 W6        29.98R
LONG PRAIRIE   FAIR      61  55  82 SW7       30.01S
LITTLE FALLS   CLEAR     64  54  68 W6        29.98S
LITCHFIELD     CLEAR     68  55  64 W5        30.04S
BUFFALO        CLEAR     67  57  71 SW5       30.02S
MAPLE LAKE     CLEAR     64  59  82 SW3       30.02S
$$
MNZ037-044-045-052-053-300700-
   East Central Minnesota

CITY           SKY/WX    TMP DP  RH WIND       PRES   REMARKS
PRINCETON      CLEAR     66  57  72 SW6       29.99R
MORA           CLEAR     64  55  72 W5        29.98R
CAMBRIDGE      CLEAR     72  55  56 W6        29.96S
RUSH CITY      PTCLDY    68  56  65 W7        29.96S
MOOSE LAKE     CLEAR     64  54  68 W5        29.91R
HINCKLEY       FAIR      63  55  77 SW6       29.95R
CLOQUET        CLEAR     66  52  59 W10       29.90S
MCGREGOR       CLEAR     66  55  68 W7        29.93R
$$
MNZ071>073-080-081-089-090-097-098-300700-
   Southwest Minnesota

CITY           SKY/WX    TMP DP  RH WIND       PRES   REMARKS
MONTEVIDEO     CLEAR     63  52  67 W3        30.06S
GRANITE FALLS  CLEAR     58  55  91 CALM      30.07R
CANBY          CLEAR     65  53  64 SW7       30.08R
MARSHALL       CLEAR     63  54  72 W8        30.08S
REDWOOD FALLS  CLEAR     68  55  63 W10       30.05R
OLIVIA         CLEAR     57  52  82 SW7       30.05R
PIPESTONE      CLEAR     63  55  77 CALM      30.12S
WINDOM         CLEAR     61  55  82 CALM      30.11R
WORTHINGTON    CLEAR     63  54  72 SW7       30.12S
JACKSON        CLEAR     64  55  72 SW6       30.12R
TRACY          CLEAR     64  57  77 SW8       30.10R
SLAYTON        CLEAR     67  56  67 CALM      30.12S
$$
MNZ065>067-074>077-082>085-091>093-300700-
   South Central Minnesota

CITY           SKY/WX    TMP DP  RH WIND       PRES   REMARKS
MANKATO        CLEAR     64  54  68 W9        30.06R
NEW ULM        CLEAR     61  55  82 W5        30.06R
ST JAMES       CLEAR     63  59  88 SW6       30.09R
FAIRMONT       CLEAR     64  55  72 SW7       30.09R
GLENCOE        CLEAR     63  57  81 SW3       30.03S
FARIBAULT      CLEAR     66  57  72 SW6       30.05S
OWATONNA       CLEAR     63  55  77 SW9       30.06R
WASECA         CLEAR     59  55  88 S3        30.08R
ALBERT LEA     CLEAR     66  57  72 W5        30.08R
$$
MNZ078>079-086>088-094>096-300700-
   Southeast Minnesota

CITY           SKY/WX    TMP DP  RH WIND       PRES   REMARKS
ROCHESTER      CLEAR     62  56  80 W9        30.07R
6HR MIN TEMP:  62; 6HR MAX TEMP:  76;

RED WING       CLEAR     68  55  64 NW3       30.00R
STANTON        CLEAR     67  56  66 W5        30.02R
DODGE CENTER   CLEAR     61  55  82 W7        30.06S
WINONA         CLEAR     70  59  68 CALM      30.02R
AUSTIN         CLEAR     64  57  77 SW5       30.07R
PRESTON        CLEAR     64  56  73 W10       30.07R
$$
ABBREVIATIONS USED IN REMARKS
   TC - TEMPERATURES IN CELSIUS
  WCI - WIND CHILL INDEX
   HX - HEAT INDEX
  VSB - VISIBILITY
$$



USA.gov is the U.S. government's official web portal to all federal, state and local government web resources and services.